This demonstration page uses our WeatherBlox Daily Observations layout. Learn more.

Left ArrowRight Arrow

Hourly Observations for April 22, 2018

Temp ( °F °C ) Dew Point ( °F °C ) Humidity (%) Winds ( mph kmh ) Pressure ( in mb ) Visibility ( mi km ) Precip ( " mm )
12:53 am 00:53 Clear 55 12.8 48 8.9 77 77 N 3 6 30.00 1016 10 16 0.00 0.00
1:53 am 01:53 Clear 53 11.7 47 8.3 80 80 Calm 30.01 1016 10 16 0.00 0.00
2:53 am 02:53 Clear 52 11.1 46 7.8 80 80 Calm 30.00 1016 10 16 0.00 0.00
3:53 am 03:53 Clear 52 11.1 46 7.8 80 80 NNW 6 9 30.00 1016 10 16 0.00 0.00
4:53 am 04:53 Clear 53 11.7 45 7.2 74 74 NNW 3 6 30.00 1016 10 16 0.00 0.00
5:53 am 05:53 Clear 53 11.7 43 6.1 69 69 N 3 6 30.00 1016 10 16 0.00 0.00
6:53 am 06:53 Sunny 58 14.4 41 5 53 53 NNW 6 9 30.00 1016 10 16 0.00 0.00
7:53 am 07:53 Sunny 61 16.1 41 5 48 48 NNW 6 9 30.00 1016 10 16 0.00 0.00
8:53 am 08:53 Sunny 68 20 41 5 38 38 NNW 10 17 30.00 1016 10 16 0.00 0.00
9:53 am 09:53 Sunny 70 21.1 39 3.9 32 32 N 15 24 29.99 1016 10 16 0.00 0.00
10:53 am 10:53 Sunny 74 23.3 40 4.4 29 29 N 7 11 29.98 1015 10 16 0.00 0.00
11:53 am 11:53 Sunny 77 25 40 4.4 26 26 NNW 7 11 29.97 1015 10 16 0.00 0.00
12:53 pm 12:53 Sunny 79 26.1 40 4.4 25 25 N 13 20 29.95 1014 10 16 0.00 0.00
1:53 pm 13:53 Sunny 82 27.8 39 3.9 22 22 NE 6 9 29.93 1014 10 16 0.00 0.00
2:53 pm 14:53 Sunny 84 28.9 35 1.7 17 17 ENE 5 7 29.91 1013 10 16 0.00 0.00
3:53 pm 15:53 Sunny 85 29.4 31 -0.6 14 14 NNE 5 7 29.89 1012 10 16 0.00 0.00
4:53 pm 16:53 Sunny 85 29.4 29 -1.7 13 13 ENE 3 6 29.87 1012 10 16 0.00 0.00
5:53 pm 17:53 Sunny 83 28.3 33 0.6 17 17 SE 5 7 29.86 1011 10 16 0.00 0.00
6:53 pm 18:53 Sunny 81 27.2 34 1.1 18 18 SSW 5 7 29.85 1011 10 16 0.00 0.00
7:53 pm 19:53 Sunny 74 23.3 42 5.6 32 32 W 6 9 29.86 1011 10 16 0.00 0.00
8:53 pm 20:53 Clear 71 21.7 42 5.6 35 35 WNW 5 7 29.88 1012 10 16 0.00 0.00
9:53 pm 21:53 Clear 72 22.2 33 0.6 24 24 N 10 17 29.91 1013 10 16 0.00 0.00
10:53 pm 22:53 Clear 70 21.1 31 -0.6 23 23 N 12 19 29.91 1013 10 16 0.00 0.00
11:53 pm 23:53 Clear 67 19.4 32 0 27 27 undefined N/A 29.93 1014 10 16 0.00 0.00

Powered by AerisWeather